sat.trackr.live / text

‹ back to catalog

JILIN-1 GAOFEN 03D52

NORAD 54255 · 2022-155E

PAYLOAD ACTIVE UNKNOWN

§ Identity

Operator
Country
PRC
Launch date
2022-11-16
Launch site
JSC
Launch vehicle
Mass (kg)
RCS (m²)

External: N2YO · Heavens-Above · Gunter

§ Orbital elements

Epoch: 2026-09-20T22:49:42.384864Z

Period
91.80 min
Inclination
97.6310°
Eccentricity
0.0002846
Mean motion
15.68561575 rev/d
Perigee alt
361.1 km
Apogee alt
364.9 km
Semi-major
6,741.2 km
B*
4.2330e-4
RAAN
54.7491°
Arg perigee
19.0076°
Mean anomaly
341.1291°
Rev number
21,467

§ Raw data

JILIN-1 GAOFEN 03D521 54255U 22155E   26263.95118501  .00047957  00000+0  42330-3 0  99912 54255  97.6310  54.7491 0002846  19.0076 341.1291 15.68561575214672

JSON: /api/v1/satellites/54255 · /tle

For live sub-satellite position, see the globe view (requires WebGL).

§ Visibility from observer

Set your observer location to see the next 7 days of passes ≥ 10°. The values pass through the URL so the page stays shareable.

No JS? Fill the form by hand. The geolocation button needs JavaScript.